• en Suisse
  • Liste des pays
  • À 7 jours
  • Température de l'eau
  • Carte satellitaire
  • Carte météo
  • Widgets météo
  • user-avatar
    Se connecter

    Météo par heure à Hartford

    Ce jour, 26 Mai, Samedi

    Heure Température Précipitation Vent Pression Humidité
    00:00 +13°C° 0 mm 3 m/s 762 mmHg 92%
    01:00 +13°C° 0 mm 3 m/s 762 mmHg 93%
    02:00 +12°C° 0 mm 3 m/s 762 mmHg 93%
    03:00 +12°C° 0 mm 3 m/s 762 mmHg 93%
    04:00 +12°C° 0 mm 3 m/s 762 mmHg 92%
    05:00 +13°C° 0 mm 3 m/s 763 mmHg 91%
    06:00 +13°C° 0 mm 4 m/s 763 mmHg 90%
    07:00 +14°C° 0 mm 4 m/s 763 mmHg 87%
    08:00 +15°C° 0 mm 4 m/s 763 mmHg 83%
    09:00 +18°C° 0 mm 4 m/s 763 mmHg 80%
    10:00 +19°C° 0 mm 5 m/s 763 mmHg 77%
    11:00 +20°C° 0 mm 5 m/s 763 mmHg 74%
    12:00 +21°C° 0 mm 6 m/s 763 mmHg 72%
    13:00 +21°C° 0,1 mm 6 m/s 763 mmHg 70%
    14:00 +21°C° 0,1 mm 7 m/s 763 mmHg 69%
    15:00 +21°C° 0,1 mm 7 m/s 762 mmHg 68%
    16:00 +21°C° 0 mm 7 m/s 762 mmHg 69%
    17:00 +20°C° 0 mm 7 m/s 762 mmHg 69%
    18:00 +19°C° 0 mm 6 m/s 762 mmHg 70%
    19:00 +17°C° 0 mm 6 m/s 762 mmHg 71%
    20:00 +16°C° 0 mm 6 m/s 762 mmHg 71%
    21:00 +15°C° 0 mm 6 m/s 762 mmHg 72%
    22:00 +14°C° 0 mm 6 m/s 762 mmHg 73%
    23:00 +14°C° 0 mm 6 m/s 762 mmHg 74%

    Demain, 27 Mai, Dimanche

    Heure Température Précipitation Vent Pression Humidité
    00:00 +13°C° 0 mm 6 m/s 762 mmHg 75%
    01:00 +13°C° 0 mm 6 m/s 761 mmHg 77%
    02:00 +13°C° 0 mm 6 m/s 761 mmHg 79%
    03:00 +13°C° 0 mm 6 m/s 760 mmHg 81%
    04:00 +14°C° 0,6 mm 6 m/s 760 mmHg 84%
    05:00 +14°C° 0,6 mm 6 m/s 760 mmHg 86%
    06:00 +14°C° 0,6 mm 6 m/s 759 mmHg 88%
    07:00 +16°C° 0,6 mm 6 m/s 759 mmHg 85%
    08:00 +17°C° 0,6 mm 7 m/s 759 mmHg 82%
    09:00 +20°C° 0,6 mm 7 m/s 759 mmHg 79%
    10:00 +21°C° 0,4 mm 7 m/s 759 mmHg 78%
    11:00 +22°C° 0,4 mm 7 m/s 759 mmHg 76%
    12:00 +23°C° 0,4 mm 7 m/s 758 mmHg 74%
    13:00 +23°C° 0,8 mm 7 m/s 758 mmHg 75%
    14:00 +23°C° 0,8 mm 6 m/s 757 mmHg 76%
    15:00 +22°C° 0,8 mm 6 m/s 757 mmHg 76%
    16:00 +22°C° 0,8 mm 6 m/s 757 mmHg 78%
    17:00 +21°C° 0,8 mm 6 m/s 757 mmHg 79%
    18:00 +20°C° 0,8 mm 5 m/s 757 mmHg 81%
    19:00 +19°C° 0,9 mm 5 m/s 757 mmHg 83%
    20:00 +17°C° 0,9 mm 5 m/s 758 mmHg 86%
    21:00 +17°C° 0,9 mm 4 m/s 758 mmHg 88%
    22:00 +17°C° 0,1 mm 4 m/s 758 mmHg 89%
    23:00 +15°C° 0,1 mm 4 m/s 758 mmHg 90%

    Après-demain, 28 Mai, Lundi

    Heure Température Précipitation Vent Pression Humidité
    00:00 +16°C° 0,1 mm 3 m/s 758 mmHg 91%
    01:00 +14°C° 0 mm 3 m/s 758 mmHg 91%
    02:00 +15°C° 0 mm 2 m/s 759 mmHg 92%
    03:00 +15°C° 0 mm 2 m/s 759 mmHg 93%
    04:00 +15°C° 0 mm 2 m/s 759 mmHg 92%
    05:00 +15°C° 0 mm 1 m/s 759 mmHg 92%
    06:00 +16°C° 0 mm 1 m/s 760 mmHg 92%
    07:00 +18°C° 0 mm 1 m/s 760 mmHg 89%
    08:00 +19°C° 0 mm 1 m/s 760 mmHg 87%
    09:00 +20°C° 0 mm 1 m/s 760 mmHg 84%
    10:00 +20°C° 0 mm 1 m/s 760 mmHg 81%
    11:00 +21°C° 0 mm 1 m/s 761 mmHg 78%
    12:00 +22°C° 0 mm 1 m/s 761 mmHg 75%
    13:00 +23°C° 0 mm 2 m/s 761 mmHg 75%
    14:00 +23°C° 0 mm 2 m/s 761 mmHg 74%
    15:00 +23°C° 0 mm 2 m/s 761 mmHg 74%
    16:00 +23°C° 0 mm 2 m/s 761 mmHg 76%
    17:00 +23°C° 0 mm 2 m/s 761 mmHg 78%
    18:00 +21°C° 0 mm 2 m/s 761 mmHg 80%
    19:00 +20°C° 0 mm 2 m/s 761 mmHg 84%
    20:00 +19°C° 0 mm 2 m/s 762 mmHg 87%
    21:00 +18°C° 0 mm 2 m/s 762 mmHg 90%
    22:00 +18°C° 0 mm 2 m/s 762 mmHg 91%
    23:00 +17°C° 0 mm 2 m/s 762 mmHg 92%

    29 Mai, Mardi

    Heure Température Précipitation Vent Pression Humidité
    00:00 +17°C° 0 mm 2 m/s 762 mmHg 93%
    01:00 +16°C° 0 mm 2 m/s 762 mmHg 93%
    02:00 +16°C° 0 mm 2 m/s 762 mmHg 93%
    03:00 +14°C° 0 mm 3 m/s 762 mmHg 93%
    04:00 +16°C° 0 mm 3 m/s 762 mmHg 92%
    05:00 +16°C° 0 mm 3 m/s 761 mmHg 91%
    06:00 +16°C° 0 mm 3 m/s 761 mmHg 90%
    07:00 +17°C° 0 mm 3 m/s 761 mmHg 86%
    08:00 +19°C° 0 mm 3 m/s 761 mmHg 82%
    09:00 +20°C° 0 mm 4 m/s 761 mmHg 78%
    10:00 +21°C° 0 mm 4 m/s 761 mmHg 74%
    11:00 +22°C° 0 mm 4 m/s 761 mmHg 71%
    12:00 +23°C° 0 mm 5 m/s 760 mmHg 67%
    13:00 +25°C° 0 mm 5 m/s 760 mmHg 66%
    14:00 +25°C° 0 mm 5 m/s 760 mmHg 65%
    15:00 +25°C° 0 mm 5 m/s 759 mmHg 64%
    16:00 +25°C° 0 mm 5 m/s 759 mmHg 67%
    17:00 +23°C° 0 mm 5 m/s 759 mmHg 71%
    18:00 +22°C° 0 mm 5 m/s 759 mmHg 74%
    19:00 +20°C° 0 mm 4 m/s 759 mmHg 78%
    20:00 +19°C° 0 mm 4 m/s 759 mmHg 82%
    21:00 +17°C° 0 mm 4 m/s 759 mmHg 87%
    22:00 +15°C° 0 mm 4 m/s 759 mmHg 88%
    23:00 +16°C° 0 mm 3 m/s 759 mmHg 89%

    30 Mai, Mercredi

    Heure Température Précipitation Vent Pression Humidité
    00:00 +14°C° 0 mm 3 m/s 759 mmHg 90%
    01:00 +13°C° 0 mm 3 m/s 759 mmHg 90%
    02:00 +13°C° 0 mm 3 m/s 758 mmHg 91%
    03:00 +13°C° 0 mm 3 m/s 758 mmHg 91%
    04:00 +13°C° 0 mm 3 m/s 758 mmHg 90%
    05:00 +13°C° 0 mm 3 m/s 758 mmHg 89%
    06:00 +14°C° 0 mm 3 m/s 757 mmHg 88%
    07:00 +16°C° 0 mm 3 m/s 757 mmHg 85%
    08:00 +17°C° 0 mm 4 m/s 757 mmHg 82%
    09:00 +18°C° 0 mm 4 m/s 757 mmHg 79%
    10:00 +19°C° 0 mm 4 m/s 757 mmHg 78%
    11:00 +20°C° 0 mm 4 m/s 757 mmHg 76%
    12:00 +21°C° 0 mm 4 m/s 757 mmHg 75%
    13:00 +21°C° 0 mm 3 m/s 757 mmHg 76%
    14:00 +21°C° 0 mm 3 m/s 756 mmHg 77%
    15:00 +21°C° 0 mm 3 m/s 756 mmHg 78%
    16:00 +21°C° 0,1 mm 3 m/s 756 mmHg 80%
    17:00 +21°C° 0,1 mm 3 m/s 756 mmHg 81%
    18:00 +21°C° 0,1 mm 3 m/s 756 mmHg 82%
    19:00 +20°C° 0,1 mm 3 m/s 756 mmHg 84%
    20:00 +19°C° 0,1 mm 3 m/s 756 mmHg 86%
    21:00 +18°C° 0,1 mm 3 m/s 756 mmHg 88%
    22:00 +17°C° 0 mm 3 m/s 756 mmHg 89%
    23:00 +16°C° 0 mm 3 m/s 756 mmHg 90%

    31 Mai, Jeudi

    Heure Température Précipitation Vent Pression Humidité
    00:00 +16°C° 0 mm 3 m/s 756 mmHg 91%
    01:00 +15°C° 0 mm 2 m/s 756 mmHg 91%
    02:00 +15°C° 0 mm 2 m/s 756 mmHg 91%
    03:00 +15°C° 0 mm 2 m/s 756 mmHg 91%
    04:00 +15°C° 0 mm 2 m/s 756 mmHg 90%
    05:00 +15°C° 0 mm 2 m/s 756 mmHg 90%
    06:00 +15°C° 0 mm 2 m/s 756 mmHg 90%
    07:00 +16°C° 0 mm 2 m/s 756 mmHg 88%
    08:00 +17°C° 0 mm 2 m/s 756 mmHg 86%
    09:00 +17°C° 0 mm 2 m/s 756 mmHg 84%
    10:00 +18°C° 0,1 mm 2 m/s 756 mmHg 83%
    11:00 +18°C° 0,1 mm 2 m/s 756 mmHg 82%
    12:00 +19°C° 0,1 mm 2 m/s 757 mmHg 81%
    13:00 +19°C° 0,1 mm 2 m/s 756 mmHg 80%
    14:00 +19°C° 0,1 mm 2 m/s 756 mmHg 80%
    15:00 +20°C° 0,1 mm 2 m/s 756 mmHg 80%
    16:00 +21°C° 0 mm 1 m/s 756 mmHg 80%
    17:00 +21°C° 0 mm 1 m/s 756 mmHg 81%
    18:00 +21°C° 0 mm 1 m/s 756 mmHg 81%
    19:00 +20°C° 0 mm 1 m/s 757 mmHg 84%
    20:00 +19°C° 0 mm 1 m/s 757 mmHg 88%
    21:00 +18°C° 0 mm 1 m/s 758 mmHg 91%
    22:00 +18°C° 0 mm 1 m/s 758 mmHg 92%
    23:00 +16°C° 0 mm 1 m/s 758 mmHg 92%
    Voir plus